STARLINK-2686, 48464

Orbit data source: Space-Track

STARLINK-2686, 48464 is a payload satellite owned by SpaceX/Seattle (US) in LEO that was launched on Sun, 09 May 2021 UTC via an FALCON 9 launch vehicle from the Air Force Eastern Test Range (AFETR). Payload-class satellites include a variety of spacecraft equipped with specific instruments for various scientific and technological missions. These include communications satellites like Starlink; space stations such as the ISS; scientific satellites like the Hubble; Earth observation satellites from companies like Planet Labs, Umbra, and HawkEye 360; GPS; miniature CubeSats for education and research; and military/defense satellites.

Loading next visibility...
Identifier
48464, 2021-040AN
Orbit
LEO
Country
Flag of USUS
Related business
Manufacturer
SpaceX/Seattle
Mission
Operational Commercial Communications
Bus & Motor
STARLINK, Unknown motor
Mass
260 kg wet, ~248 kg dry
Launch date (UTC)
2021-05-09 (5 years ago)
Launch vehicle
FALCON 9
Launch site
Air Force Eastern Test Range (AFETR)
Object type
Payload
Rocket body
Debris
Shape & HBR
Box + 1 Pan, 10.1 m
Radar Cross Section
13.562 m², Large (>1 m²)

Expand to show TLE details & history
Last TLE update: 2 days ago

TLE from 2 days ago
0 STARLINK-2686
1 48464U 21040AN  26170.93691527  .00001129  00000-0  48144-4 0  9999
2 48464  53.1622  75.5124 0001398  90.9662 269.1500 15.31700332282161
Epoch: 2026-06-19T22:29Z
TLE epoch observation values (Epoch: 2026-06-19T22:29:09.479Z)
Latitude
0.00002°
Longitude
-169.93582°
Altitude
471.654 km
Speed
7.631 km/s
True Right ascension
05h 02m 02s
True Declination
0° 00' 00"
Sunlit
Object was in daylight at epoch
Visualization orbit readout
Latitude
Unknown
Longitude
Unknown
Altitude
Unknown
Speed
Unknown
Apparent Right ascension
Unknown
Apparent Declination
Unknown
Sunlit
N/A
Visualization observer readout
Local Sidereal Time
21:24:34
Azimuth
Unknown
Elevation
Unknown
Doppler factor
Unknown
Orbital elements
Apogee altitude
471.953 km
Perigee altitude
470.038 km
Semi-major axis
6,849.132 km
Eccentricity
0.00014
Inclination
53.1622°
RAAN
75.5124°
Arg. of periapsis
90.9662°
True anomaly
269.13398°
Mean anomaly
269.15°
Eccentric anomaly
269.14199°
Mean motion
3.82904 °/min
Orbital period
94.02 mins
BSTAR
0.000048144
Loading maneuver chart data...
Computing Atmospheric mass density...

Documentation

Showing up to 5 results
|